Other Surface Observations
Issued by NWS Tucson, AZ

Home | Current Version | Previous Version | Text Only | Print | Product List | Glossary On
Versions: 1 2 3 4 5 6 7 8 9 10 11 12 13 14 15 16 17 18 19 20 21 22 23 24 25 26 27 28 29 30 31 32 33 34 35 36 37 38 39 40 41 42 43 44 45 46 47 48 49 50
000
SXUS55 KTWC 212216
OSOTWC

WEATHER ROUNDUP FOR SOUTHEAST ARIZONA
NATIONAL WEATHER SERVICE TUCSON AZ
315 PM MST TUE OCT 21 2014

AZZ504>506-514-212315-
LOCATION       SKY/WX    TMP DP  RH WIND       PRES   REMARKS
TUCSON         SUNNY     85  42  22 E3        29.88F
DAVIS-MONTHAN  SUNNY     82  42  24 VRB2      29.87F
CHILDRENS PARK N/A       83  45  26 SE1               PIMA CO DEQ
ALVERNON/22ND  N/A      N/A N/A N/A N/A               PIMA CO DEQ
CHERRY/GLENN   N/A      N/A N/A N/A N/A               PIMA CO DEQ
TANGERINE      N/A       84 N/A N/A W3                PIMA CO DEQ
CONTL RANCH    N/A       85  45  25 E1                PIMA CO DEQ
GRANT/1ST      N/A       83  45  26 S0                PIMA CO DEQ
CRAYCROFT/22ND N/A      N/A N/A N/A N/A               PIMA CO DEQ
GOLFLINKS/KOLB N/A       82  45  27 NE2               PIMA CO DEQ
AJO/12TH       N/A       83  42  24 SE4               PIMA CO DEQ
SAGUARO EAST   N/A      N/A N/A N/A N/A               PIMA CO DEQ
FAIRGROUNDS    N/A       82 N/A N/A E2                PIMA CO DEQ
SAGUARO        N/A       85  48  28 SW4               *SABINO CYN
SAN CARLOS     N/A       80  51  37 SE7G14            *SAN CARLOS
GREEN VALLEY   N/A       82  42  24 NE3               PIMA CO DEQ
HORSE CAMP CYN N/A       75  48  38 E7G18             *ARAVAIPA CYN
RINCON MTNS    N/A       55  43  63 CALM              *NR MANNING CAMP
$$

AZZ509>511-212315-
LOCATION       SKY/WX    TMP DP  RH WIND       PRES   REMARKS
SAFFORD        SUNNY     78  49  35 SE7       29.92F
STRAY HORSE    N/A       54  40  58 E4                *
TRAIL CABIN    N/A       66  47  50 SE6G11            *N OF GRANVILLE
BLACK HILLS    N/A       77  47  35 SE10G19           *N OF FT THOMAS
DRY LAKE       N/A       59  43  56 S6G12             *NATANES MTNS
NOON CREEK     N/A       71  50  47 NE4G12            *PINALENO MTNS
COLUMBINE      N/A       52  43  70 SW6G11            *PINALENO MTNS
GUTHRIE        N/A       61  46  58 SE4G13            *SW OF GUTHRIE
$$

AZZ502-503-513-212315-
LOCATION       SKY/WX    TMP DP  RH WIND       PRES   REMARKS
NOGALES        SUNNY     80  41  24 MISG      29.94F
SELLS          N/A       87  50  28 W7G12             *
SASABE         N/A       82  43  25 N7G14             *ALTAR VLY
HOPKINS        N/A       61  47  61 SW2               *SANTA RITA MTNS
CARR CYN       N/A       67  48  50 CALM              *W OF HEREFORD
$$

AZZ507-508-512-212315-
LOCATION       SKY/WX    TMP DP  RH WIND       PRES   REMARKS
SIERRA VISTA   MOSUNNY   73  41  31 E3        30.00F
DOUGLAS        SUNNY     78  42  27 CALM      29.97S
EMPIRE MTNS    N/A       73  41  31 N6G14             *LAS CIENEGAS NCA
MULESHOE RANCH N/A       77  45  32 W4                *PRESERVE
HEADQUARTERS   N/A       70  51  51 E5G12             *CHIRICAHUA MTNS
$$

.............................NOTES.............................
THIS IS AN AUTOMATED COLLECTIVE WITH MINIMAL QUALITY CONTROL.
PIMA CO DEQ SITES HAVE NONSTANDARD WIND SENSOR HEIGHTS.
PIMA CO DEQ SITES DO NOT REPORT WIND GUSTS.
* INDICATES WIND SENSORS LOCATED AT 20 FEET INSTEAD OF 33 FEET.
..............................KEY..............................
SKY/WX - SKY CONDITION/WEATHER
TMP    - TEMPERATURE IN FAHRENHEIT
DP     - DEWPOINT IN FAHRENHEIT
RH     - RELATIVE HUMIDITY IN PERCENT
WIND   - DIRECTION AND SPEED IN MILES PER HOUR (MPH)
VRB    - VARIABLE WIND DIRECTION
PRES   - MEAN SEA LEVEL PRESSURE IN INCHES OF MERCURY
         F - FALLING PRESSURE   R - RISING PRESSURE
         S - STEADY PRESSURE
VSB    - VISIBILITY IN MILES
HX     - HEAT INDEX IN FAHRENHEIT
WCI    - WIND CHILL INDEX IN FAHRENHEIT
N/A    - NOT AVAILABLE
AFB    - AIR FORCE BASE
         DAVIS-MONTHAN IS DAVIS-MONTHAN AIR FORCE BASE
CYN    - CANYON
MTNS   - MOUNTAINS
NCA    - NATIONAL CONSERVATION AREA
NR     - NEAR
VLY    - VALLEY
CONTL  - CONTINENTAL
PIMA CO DEQ - PIMA COUNTY DEPT OF ENVIRONMENTAL QUALITY



USA.gov is the U.S. government's official web portal to all federal, state and local government web resources and services.